Regional Weather Roundup
Issued by NWS

Home | Current Version | Previous Version | Text Only | Print | Product List | Glossary Off
Versions: 1 2 3 4 5 6 7 8 9 10 11 12 13 14 15 16 17 18 19 20 21 22 23 24 25 26 27 28 29 30 31 32 33 34 35 36 37 38 39 40 41 42 43 44 45 46 47 48 49 50

000
ASUS43 KOAX 222302
RWRNE

WEATHER ROUNDUP FOR NEBRASKA
NATIONAL WEATHER SERVICE OMAHA NE
600 PM CDT MON MAY 22 2017

NOTES: SATELLITE DATA IS BEING USED TO AUGMENT CLOUD COVER ABOVE
       12000 FEET.
       "FAIR" INDICATES FEW OR NO CLOUDS BELOW 12,000 FEET WITH NO
       SIGNIFICANT WEATHER AND/OR OBSTRUCTIONS TO VISIBILITY.

  * THESE STATIONS DO NOT REPORT WEATHER SUCH AS RAIN...SNOW OR FOG.

NEZ001>004-019>022-054>056-230000-
NEBRASKA PANHANDLE

CITY           SKY/WX    TMP DP  RH WIND       PRES   REMARKS
SCOTTSBLUFF    CLOUDY    54  40  59 NW23      30.10R
ALLIANCE       CLOUDY    50  42  74 N16       30.06S
CHADRON        LGT RAIN  50  45  83 E5        30.07R
GORDON         LGT RAIN  47  42  82 N13       30.06R
KIMBALL        CLOUDY    48  42  78 NW18      30.12F
SIDNEY         CLOUDY    51  43  74 NW18G29   30.07F
$$

NEZ057>060-069>072-079>082-230000-
SOUTHWEST NEBRASKA

CITY           SKY/WX    TMP DP  RH WIND       PRES   REMARKS
NORTH PLATTE   CLOUDY    61  43  51 NW14      29.97R
IMPERIAL       CLOUDY    59  42  53 N32G41    30.02R
LEXINGTON      MOSUNNY   69  44  41 N12       29.92S
MCCOOK         MOSUNNY   71  40  32 NW17      29.93S
OGALLALA       CLOUDY    60  41  49 N16G22    30.03S
$$

NEZ005>010-023>029-035>040-094-230000-
NORTH CENTRAL NEBRASKA

CITY           SKY/WX    TMP DP  RH WIND       PRES   REMARKS
VALENTINE      CLOUDY    60  39  45 N23G29    29.99R
AINSWORTH      CLOUDY    61  46  59 N17G24    29.96S
BROKEN BOW     MOSUNNY   63  43  48 N23G30    29.94R
O`NEILL        PTSUNNY   63  42  45 NW16G22   29.93R
ORD            MOSUNNY   61  43  51 N28G36    29.93R
THEDFORD       LGT RAIN  56  47  71 W6        29.98R
$$

NEZ041-046>049-061>064-073>077-083>087-230000-
SOUTH CENTRAL NEBRASKA

CITY           SKY/WX    TMP DP  RH WIND       PRES   REMARKS
GRAND ISLAND   MOSUNNY   68  46  45 NW20G25   29.89F
AURORA         CLOUDY    68  47  47 N12       29.89R
HASTINGS       CLOUDY    66  52  60 N12       29.91R
HEBRON         CLOUDY    58  51  76 NW14G28   29.93R
HOLDREGE       MOSUNNY   67  44  43 N13       29.91S
KEARNEY *      MOSUNNY   70  46  43 N18       29.91S
$$

NEZ011>018-030>034-042>045-230000-
NORTHEAST NEBRASKA

CITY           SKY/WX    TMP DP  RH WIND       PRES   REMARKS
NORFOLK        SUNNY     66  43  43 NW17G25   29.87F
ALBION         SUNNY     67  43  42 NW15G26   29.89F
BLAIR          CLOUDY    65  55  68 S15       29.85R
FREMONT        CLOUDY    71  47  42 NW15      29.86R
TEKAMAH        CLOUDY    69  50  50 NW17      29.84S
WAYNE          MOSUNNY   66  48  51 NW14G20   29.86F
$$

NEZ050>053-065>068-078-088>093-230000-
SOUTHEAST NEBRASKA

CITY           SKY/WX    TMP DP  RH WIND       PRES   REMARKS
LINCOLN        CLOUDY    59  56  89 NE3       29.89R
OMAHA EPPLEY   CLOUDY    66  52  60 SW8       29.85R
BEATRICE       CLOUDY    67  57  69 S14       29.88R
FALLS CITY     CLOUDY    63  55  75 S15       29.88F
NEBRASKA CITY  CLOUDY    67  47  49 SW15      29.87R
PLATTSMOUTH    LGT RAIN  67  44  42 W10       29.88R
$$

NEZ044-045-051>053-067-230000-
OMAHA AREA

CITY           SKY/WX    TMP DP  RH WIND       PRES   REMARKS
OMAHA EPPLEY   CLOUDY    66  52  60 SW8       29.85R
BLAIR          CLOUDY    65  55  68 S15       29.85R
FREMONT        CLOUDY    71  47  42 NW15      29.86R
MILLARD        CLOUDY    62  54  74 S6        29.86S
OFFUTT AFB     LGT RAIN  61  54  78 SW9       29.86R
PLATTSMOUTH    LGT RAIN  67  44  42 W10       29.88R
WAHOO          CLOUDY    69  47  46 N10       29.85S
$$




USA.gov is the U.S. government's official web portal to all federal, state and local government web resources and services.